Wind_Speed
13 12 12 11 9 9 9 7 6 7 7 8 9 11 12 13 14 14 15 15 15 16 17 17 17 17 17 18 18 18 19 19 18 20 21 22 22 23 23 23 24 24 25
13 13 12 11 10 9 9 8 7 8 8 9 9 11 12 13 14 15 15 16 16 17 17 18 19 19 19 19 20 20 20 20 20 20 21 22 23 23 24 24 24 25 26
14 14 13 12 11 11 10 9 9 9 10 10 11 11 12 13 13 15 17 18 18 18 18 18 19 19 20 20 21 21 21 22 22 21 22 23 25 25 25 25 25 26 26
15 14 14 14 13 13 12 11 10 11 12 12 12 13 13 14 15 16 17 17 18 19 19 19 20 20 20 21 21 22 22 22 23 23 23 24 25 26 26 26 27 27 28
15 15 15 15 14 14 14 13 13 13 13 13 13 13 14 15 15 16 17 18 18 19 20 21 21 21 21 21 21 22 23 23 24 25 25 25 26 26 27 28 28 29 29
17 16 16 15 15 15 15 15 14 13 14 14 15 14 15 15 16 17 18 17 18 19 21 22 22 22 22 22 22 23 23 24 25 26 26 26 27 27 28 29 29 30 29
18 18 17 17 17 17 16 16 16 15 15 15 15 15 15 16 17 18 18 19 19 19 20 21 22 22 22 23 23 24 24 25 26 27 27 28 28 28 29 29 30 30 30
19 19 19 19 18 18 18 18 17 17 17 17 17 17 17 17 18 18 19 20 20 20 20 21 22 22 23 24 25 25 25 26 27 28 28 28 28 29 29 30 31 32 31
21 22 21 21 21 20 20 20 20 19 19 19 18 18 19 19 19 19 19 20 21 22 22 23 23 24 24 25 26 26 27 28 29 29 29 29 30 30 30 31 32 32 32
24 24 24 24 24 23 22 22 21 21 21 21 21 21 20 20 20 21 21 22 22 23 23 24 24 24 25 27 28 28 29 29 29 30 30 31 31 32 33 33 33 33 33
26 26 26 26 25 24 24 24 24 24 23 24 24 24 23 23 23 23 23 24 24 25 25 25 26 26 27 28 28 29 30 30 30 30 31 31 32 33 34 34 34 34 34
29 29 28 28 27 27 26 26 26 26 26 26 26 26 26 25 25 25 26 26 26 26 26 27 27 28 28 28 29 30 30 31 31 31 32 32 33 33 34 34 35 34 34
32 31 30 30 30 30 29 29 29 29 28 28 28 28 28 28 28 28 28 29 29 29 29 29 29 29 30 30 31 32 32 32 32 32 33 33 34 34 34 34 35 35 35
33 33 32 32 32 32 32 32 32 32 31 30 30 29 29 29 29 30 30 31 31 31 31 32 32 32 32 32 33 33 33 33 34 34 34 34 35 35 34 34 35 35 35
35 34 34 34 34 34 34 34 34 34 33 32 31 31 31 31 31 31 32 32 32 32 33 33 33 34 34 34 34 34 35 34 34 34 34 34 35 34 35 35 35 34 35
36 36 36 35 36 36 35 35 35 35 34 33 32 32 33 33 33 33 33 33 33 33 34 35 35 35 35 35 35 36 36 35 34 34 35 35 35 35 35 35 34 34 34
38 37 37 37 38 38 37 37 36 36 35 35 34 35 35 35 35 35 35 35 35 35 35 36 36 36 37 36 36 36 36 36 36 36 36 36 36 36 35 35 34 34 34
38 37 38 38 39 39 38 38 37 36 36 35 35 36 36 36 36 36 36 36 36 36 37 37 36 37 37 37 36 36 36 36 36 35 35 36 36 35 34 33 33 33 33
39 39 39 39 39 39 39 39 38 37 36 36 36 36 36 36 36 37 37 37 37 37 37 37 36 36 36 36 36 36 36 36 35 35 35 34 34 33 32 32 33 33 33
39 39 39 39 39 39 39 38 38 37 37 37 37 37 37 36 36 36 36 36 36 36 36 36 36 35 35 35 35 36 36 35 34 34 34 33 33 32 32 33 33 33 33
39 39 39 39 38 38 38 38 38 38 38 38 38 38 37 36 36 36 36 36 35 35 35 35 35 35 35 35 35 35 35 34 34 34 33 33 33 34 34 33 33 33 33
39 39 39 39 38 38 38 38 38 38 38 38 38 38 37 37 36 36 36 36 36 36 35 35 36 36 35 35 34 34 34 34 33 33 33 33 33 34 33 33 33 32 32
39 38 38 37 37 37 36 36 36 37 37 38 38 37 37 37 36 36 36 36 36 35 35 35 35 35 35 34 34 34 34 34 34 34 33 33 33 33 32 32 31 31 31
38 37 36 36 36 36 36 36 36 36 36 37 36 36 36 35 35 36 36 36 35 35 35 35 34 34 34 34 34 34 34 34 34 34 34 34 33 33 32 32 31 31 31
35 35 35 35 35 35 35 35 35 35 35 35 35 35 35 34 34 34 34 34 34 34 34 33 33 33 33 33 32 32 32 32 32 33 33 32 32 32 31 31 31 31 31
33 33 33 33 33 33 33 33 33 34 34 34 34 34 34 34 33 33 33 33 33 33 33 32 32 32 31 31 31 30 30 31 31 31 31 31 31 31 30 31 31 31 31
Wind_Direction
347 345 344 342 337 335 336 324 298 286 281 271 266 261 259 259 261 260 261 262 262 265 267 268 268 269 269 269 271 272 274 274 274 273 274 276 278 277 276 277 277 278 281
345 344 342 339 336 333 329 323 311 298 291 284 279 272 266 265 263 262 263 264 264 267 269 270 270 268 270 272 272 272 273 273 275 276 277 277 278 279 278 277 278 280 282
343 344 343 341 336 330 326 321 312 303 292 285 279 277 272 269 270 268 269 266 264 267 268 270 271 270 270 274 274 275 274 274 276 279 278 278 279 280 279 279 280 281 282
338 339 338 338 337 332 328 323 313 305 297 290 287 279 276 271 269 272 274 270 267 267 269 270 272 273 273 275 277 278 278 276 277 279 280 280 281 282 282 283 283 283 281
330 331 332 331 330 328 326 323 314 306 297 292 292 286 280 276 272 276 279 273 270 268 270 271 274 274 275 275 277 279 278 279 279 280 282 281 282 283 284 285 285 283 281
326 325 326 325 324 323 322 321 317 311 305 297 295 289 286 283 279 279 281 277 273 272 272 273 275 274 274 275 277 279 279 280 280 281 283 284 283 284 284 286 285 284 285
319 320 320 320 318 318 317 318 316 314 309 301 297 293 289 287 285 281 280 281 279 275 273 274 275 276 276 277 279 280 279 280 281 282 283 283 285 285 285 285 286 286 286
312 314 316 315 314 313 313 313 310 310 309 304 300 295 292 289 285 281 280 282 282 280 279 278 278 278 279 280 281 282 282 283 282 282 282 283 285 286 286 287 287 286 284
308 310 310 310 310 310 309 309 308 306 305 304 301 298 295 291 286 283 283 283 282 281 280 280 280 280 281 282 283 283 284 284 283 283 283 283 285 286 286 287 287 287 285
303 304 305 306 306 306 306 308 307 306 304 301 300 298 297 294 289 285 283 285 285 285 284 282 281 282 283 283 283 284 284 285 285 285 284 284 284 285 286 287 287 286 285
298 298 299 300 301 302 302 304 304 303 302 300 299 296 294 292 290 286 285 286 287 287 286 285 285 285 285 284 284 285 285 285 285 285 285 285 286 286 287 286 285 285 285
293 294 295 297 297 297 298 299 299 300 299 298 296 295 293 291 290 287 286 287 288 287 286 286 287 287 287 287 286 286 287 286 286 286 285 285 285 287 287 286 285 285 285
290 290 291 293 295 295 295 296 296 296 297 296 295 293 291 290 289 288 288 287 288 287 286 287 287 286 286 286 286 287 286 286 287 286 286 286 286 287 286 286 286 285 285
287 287 288 289 290 291 292 293 293 294 294 294 292 292 291 290 289 289 288 288 288 287 286 286 286 286 286 287 287 287 287 287 287 287 287 287 287 286 286 286 285 285 285
284 283 284 286 286 288 289 290 291 291 291 291 291 291 291 291 291 290 290 289 288 288 287 287 286 286 286 286 287 287 287 287 287 287 287 287 287 286 285 285 285 285 284
281 282 283 285 286 287 288 289 290 290 290 290 290 290 291 290 290 290 290 289 288 288 288 288 287 286 286 286 286 287 287 287 287 287 287 287 286 285 285 285 284 284 284
279 280 282 283 285 287 288 289 290 290 290 289 289 290 290 290 289 289 290 290 289 288 288 288 288 287 287 286 286 286 286 286 286 286 286 286 286 285 285 285 283 282 283
280 280 281 282 284 286 287 288 288 288 289 289 289 290 291 291 290 290 290 290 289 289 289 288 288 287 287 286 286 286 286 286 286 286 285 285 285 284 284 283 282 281 281
280 281 281 281 283 284 286 287 287 287 288 289 289 290 291 291 291 291 290 290 289 289 289 288 288 287 286 285 285 285 286 286 286 285 285 285 284 283 282 282 282 281 280
280 281 282 282 282 284 284 285 286 287 289 290 290 290 290 291 291 291 291 291 290 290 290 289 288 288 287 286 286 286 286 285 285 284 284 284 284 282 282 282 281 281 282
280 281 282 282 283 283 284 285 286 286 287 289 289 290 290 290 290 290 290 290 290 290 289 289 289 288 287 286 287 287 286 286 285 285 284 284 283 283 281 280 280 281 281
281 281 282 283 284 285 286 286 286 286 287 288 289 289 288 288 289 289 289 290 290 290 291 290 290 290 289 288 288 288 287 285 284 284 284 284 283 283 282 281 281 281 280
281 281 283 284 285 285 285 286 286 287 287 287 287 286 286 286 287 288 289 290 291 291 291 291 291 290 289 288 287 288 286 285 284 284 284 284 284 282 281 281 281 281 280
280 281 283 284 284 285 285 285 285 286 286 286 287 286 285 286 288 289 290 290 291 292 292 292 291 290 289 288 286 286 286 286 284 284 285 285 285 284 282 280 280 280 280
282 282 283 283 284 284 285 285 285 285 286 287 288 288 288 289 289 290 290 291 291 291 291 291 290 290 289 288 287 288 287 286 286 286 286 285 285 284 283 281 280 281 280
283 283 283 284 284 284 284 285 286 286 286 287 287 288 288 289 289 289 290 291 291 291 291 291 291 290 290 289 289 288 288 288 289 288 287 286 284 283 283 282 281 281 281
Height
5897 5895 5893 5890 5889 5887 5885 5883 5883 5882 5882 5882 5881 5881 5882 5882 5882 5882 5882 5882 5882 5882 5882 5882 5882 5881 5881 5881 5880 5879 5878 5878 5877 5876 5874 5873 5872 5870 5869 5867 5866 5865 5863
5896 5894 5891 5890 5888 5886 5884 5882 5881 5880 5880 5879 5879 5878 5878 5878 5878 5878 5878 5878 5878 5878 5878 5877 5877 5876 5876 5875 5875 5874 5873 5872 5871 5870 5868 5867 5866 5864 5863 5861 5860 5858 5856
5895 5892 5890 5888 5886 5884 5882 5880 5879 5878 5877 5877 5876 5876 5875 5875 5874 5874 5874 5874 5874 5874 5873 5872 5872 5871 5871 5870 5869 5868 5867 5866 5865 5864 5863 5861 5860 5858 5856 5855 5853 5851 5849
5893 5891 5889 5887 5884 5882 5880 5878 5876 5875 5874 5873 5872 5872 5871 5871 5870 5870 5869 5869 5869 5868 5868 5867 5866 5866 5865 5864 5863 5862 5861 5860 5858 5857 5856 5854 5853 5851 5850 5848 5846 5844 5842
5891 5889 5887 5885 5882 5880 5878 5876 5874 5872 5871 5870 5869 5868 5867 5866 5866 5865 5864 5863 5863 5863 5862 5861 5861 5860 5859 5858 5857 5856 5854 5853 5852 5850 5849 5847 5846 5844 5842 5840 5838 5836 5834
5889 5887 5884 5882 5880 5878 5876 5873 5871 5869 5867 5866 5865 5864 5863 5862 5861 5860 5859 5858 5857 5857 5856 5855 5854 5853 5852 5851 5851 5849 5848 5846 5845 5843 5842 5840 5838 5836 5834 5832 5830 5828 5826
5886 5883 5881 5879 5877 5875 5873 5870 5868 5865 5863 5862 5861 5860 5858 5857 5856 5855 5854 5853 5852 5851 5850 5849 5848 5847 5846 5845 5844 5842 5841 5839 5837 5836 5834 5832 5830 5828 5826 5824 5822 5820 5817
5882 5879 5877 5875 5873 5871 5869 5866 5864 5862 5860 5858 5857 5855 5854 5852 5851 5850 5848 5847 5846 5845 5844 5842 5841 5840 5839 5837 5836 5835 5833 5831 5830 5828 5826 5824 5822 5820 5818 5816 5813 5810 5808
5877 5875 5873 5871 5869 5866 5864 5862 5860 5858 5856 5854 5852 5850 5849 5847 5845 5844 5842 5841 5840 5839 5837 5836 5834 5833 5832 5830 5829 5827 5826 5824 5821 5819 5817 5815 5813 5811 5809 5807 5805 5802 5800
5872 5870 5868 5866 5864 5861 5859 5857 5855 5853 5851 5849 5847 5845 5843 5841 5840 5838 5837 5835 5833 5832 5830 5828 5827 5825 5824 5822 5820 5819 5817 5815 5813 5811 5809 5807 5805 5802 5800 5798 5796 5793 5791
5866 5864 5862 5860 5858 5856 5854 5852 5850 5847 5845 5843 5841 5839 5837 5835 5833 5832 5830 5828 5826 5825 5823 5821 5819 5818 5816 5814 5812 5810 5808 5806 5804 5802 5800 5797 5795 5793 5791 5788 5786 5783 5781
5859 5857 5855 5854 5851 5849 5847 5845 5843 5841 5839 5837 5834 5832 5830 5829 5827 5824 5823 5821 5819 5817 5815 5813 5811 5809 5807 5805 5803 5801 5799 5797 5795 5793 5790 5788 5786 5783 5781 5778 5775 5773 5771
5851 5849 5848 5846 5844 5842 5840 5838 5836 5834 5831 5829 5827 5825 5823 5821 5819 5817 5815 5813 5811 5809 5807 5805 5803 5801 5798 5796 5794 5792 5790 5787 5785 5783 5781 5778 5776 5773 5771 5768 5765 5763 5761
5842 5841 5839 5838 5836 5834 5832 5830 5828 5826 5823 5821 5819 5817 5815 5813 5811 5809 5806 5804 5802 5800 5797 5795 5793 5791 5789 5787 5784 5782 5780 5777 5775 5773 5770 5768 5765 5763 5760 5758 5756 5753 5751
5833 5831 5830 5829 5827 5825 5823 5821 5819 5817 5814 5812 5810 5808 5806 5804 5802 5800 5797 5795 5792 5790 5788 5786 5783 5781 5779 5776 5774 5772 5769 5767 5765 5762 5760 5757 5755 5752 5750 5748 5746 5743 5741
5823 5822 5820 5819 5817 5815 5813 5811 5809 5807 5804 5802 5801 5799 5797 5795 5793 5790 5788 5785 5783 5781 5778 5776 5773 5771 5768 5766 5764 5761 5759 5757 5754 5752 5749 5747 5744 5742 5740 5737 5735 5733 5731
5813 5812 5810 5809 5807 5806 5804 5802 5800 5798 5795 5793 5791 5789 5787 5785 5783 5780 5778 5775 5773 5770 5768 5765 5763 5760 5758 5755 5753 5750 5748 5746 5743 5741 5738 5736 5733 5731 5729 5727 5724 5722 5720
5803 5802 5800 5799 5798 5796 5794 5792 5790 5787 5786 5783 5781 5779 5776 5774 5772 5769 5767 5764 5762 5759 5757 5754 5752 5749 5746 5744 5741 5739 5737 5734 5732 5730 5727 5725 5723 5720 5718 5716 5714 5712 5710
5792 5791 5789 5788 5787 5785 5783 5781 5779 5777 5775 5773 5771 5768 5766 5763 5761 5758 5756 5753 5751 5748 5745 5743 5740 5737 5735 5732 5730 5728 5726 5723 5721 5718 5716 5714 5712 5710 5708 5706 5704 5702 5700
5781 5780 5778 5777 5776 5774 5772 5770 5768 5766 5764 5762 5760 5757 5755 5752 5750 5747 5745 5742 5739 5737 5734 5732 5729 5726 5724 5722 5719 5717 5715 5712 5710 5708 5706 5704 5702 5700 5697 5695 5693 5691 5689
5770 5769 5768 5766 5764 5763 5761 5759 5758 5756 5753 5751 5749 5746 5744 5742 5739 5736 5734 5731 5728 5726 5723 5721 5718 5715 5713 5710 5708 5706 5703 5701 5699 5697 5695 5693 5691 5689 5687 5685 5683 5681 5679
5759 5758 5757 5755 5753 5751 5750 5748 5746 5744 5742 5740 5738 5735 5733 5730 5728 5726 5723 5720 5718 5715 5712 5710 5707 5705 5702 5700 5697 5695 5692 5690 5688 5686 5684 5682 5680 5678 5676 5674 5672 5670 5668
5748 5747 5745 5744 5742 5740 5739 5737 5735 5733 5730 5728 5726 5724 5721 5719 5717 5714 5712 5709 5707 5704 5701 5699 5696 5694 5691 5688 5686 5684 5682 5679 5677 5675 5673 5671 5669 5667 5665 5663 5661 5660 5658
5737 5735 5734 5733 5731 5729 5728 5726 5724 5722 5719 5717 5715 5712 5710 5708 5705 5703 5701 5698 5696 5693 5690 5688 5685 5683 5680 5678 5675 5673 5671 5669 5667 5665 5663 5661 5659 5657 5655 5653 5651 5650 5648
5726 5725 5723 5722 5720 5718 5717 5714 5712 5710 5708 5706 5704 5702 5699 5697 5694 5692 5690 5687 5685 5682 5680 5677 5674 5672 5669 5667 5665 5663 5660 5658 5656 5654 5652 5650 5648 5646 5644 5643 5641 5640 5638
5715 5714 5713 5711 5709 5708 5706 5704 5702 5700 5698 5695 5693 5691 5688 5686 5684 5681 5679 5677 5674 5672 5669 5666 5664 5661 5659 5656 5654 5652 5650 5648 5646 5644 5642 5640 5638 5636 5634 5633 5631 5629 5628